Temperature
17 16 16 15 15 14 14 14 14 14 13 13 13 13 13 13 13 13 13 13 13 13 12 12 12 13 13 13 13 13 13 13 13 14 14 14 14 14 14 14 15 15 15
17 16 16 15 15 15 14 14 14 14 13 13 13 13 13 13 13 13 13 13 13 13 13 12 13 13 13 13 13 13 13 13 13 13 14 14 14 14 14 14 14 14 15
17 16 16 16 15 15 15 14 14 14 14 13 13 13 13 13 13 13 13 13 13 13 13 12 13 12 13 13 13 13 13 13 13 13 13 14 14 14 14 14 14 14 14
17 17 16 16 15 15 15 14 14 14 14 14 13 13 13 13 13 13 13 13 13 13 13 12 12 12 13 13 13 13 13 13 13 13 13 13 13 13 14 14 14 14 14
17 17 17 16 16 15 15 15 14 14 14 14 14 13 13 13 13 13 13 13 13 13 13 13 13 13 13 13 13 13 13 13 13 13 13 13 13 13 13 13 13 14 14
17 17 17 16 16 15 15 15 14 14 14 14 14 14 13 13 13 13 13 13 13 13 13 13 13 13 13 13 13 13 13 13 13 13 13 13 13 13 13 13 13 13 13
17 17 17 16 16 16 15 15 15 14 14 14 14 14 14 13 13 13 13 13 13 13 13 13 13 13 13 13 13 13 13 13 13 13 13 13 13 13 13 13 13 13 13
17 17 17 16 16 16 15 15 15 15 14 14 14 14 14 14 13 13 13 13 13 13 13 13 13 13 13 13 13 13 13 13 13 13 13 13 13 13 13 13 13 13 13
17 17 17 16 16 16 16 15 15 15 15 14 14 14 14 14 13 13 13 13 13 13 13 13 13 13 13 13 13 13 13 13 13 13 13 13 12 12 12 12 12 12 12
17 17 16 16 16 16 16 15 15 15 15 15 14 14 14 14 14 13 13 13 13 13 13 13 13 13 13 12 12 12 12 12 12 12 12 12 12 12 12 12 12 12 12
17 16 16 16 16 16 15 15 15 15 15 15 14 14 14 14 14 13 13 13 13 13 13 13 13 13 12 12 12 12 12 12 12 12 12 12 12 12 12 12 12 12 11
16 16 16 16 16 15 15 15 15 15 15 14 14 14 14 14 14 13 13 13 13 13 13 13 13 12 12 12 12 12 12 12 12 12 12 12 12 12 11 11 11 11 11
16 16 15 15 15 15 15 15 15 14 14 14 14 14 14 14 14 13 13 13 13 13 13 12 12 12 12 12 12 12 12 11 11 11 11 11 11 11 11 11 11 11 11
15 15 15 15 15 15 14 14 14 14 14 14 14 14 14 14 14 13 13 13 13 13 12 12 12 12 12 12 11 11 11 11 11 11 11 11 11 11 11 11 10 10 10
14 14 14 14 14 14 14 14 14 14 14 14 14 14 14 14 14 14 13 13 13 13 12 12 12 12 11 11 11 11 11 11 11 11 10 10 10 10 10 10 10 10 10
14 14 14 14 14 14 14 14 14 13 13 13 13 13 14 13 13 13 13 13 13 12 12 12 12 11 11 11 11 11 11 10 10 10 10 10 10 10 10 9 9 9 9
13 13 13 13 13 13 13 13 13 13 13 13 13 13 13 13 13 13 13 12 12 12 12 12 11 11 11 11 11 10 10 10 10 10 9 9 9 9 9 9 9 8 8
12 12 12 13 13 13 13 13 12 12 12 13 13 13 13 13 12 12 12 12 12 11 11 11 11 11 11 11 10 10 10 10 9 9 9 9 8 8 8 8 8 8 8
11 11 12 12 12 12 12 12 12 12 12 12 12 12 12 12 12 12 11 11 11 11 11 11 11 11 10 10 10 10 9 9 9 8 8 8 8 8 8 7 7 7 7
11 11 11 11 11 11 11 11 11 11 11 11 11 12 12 11 11 11 11 11 11 11 11 11 11 10 10 10 10 9 9 9 8 8 8 7 7 7 7 7 7 6 6
10 10 10 10 10 10 10 10 10 10 11 11 11 11 11 11 11 11 11 11 11 11 11 10 10 10 10 9 9 9 8 8 8 7 7 7 7 7 6 6 6 6 6
9 9 9 9 9 10 10 10 10 10 10 10 10 10 10 10 10 10 10 10 10 10 10 10 10 10 9 9 9 8 8 8 7 7 7 7 6 6 6 6 5 5 5
8 8 8 8 9 9 9 9 9 9 9 10 10 10 10 10 10 10 10 10 10 10 9 9 9 9 9 9 8 8 8 7 7 7 6 6 6 6 5 5 5 5 4
8 8 8 8 8 8 8 8 9 9 9 9 9 9 9 9 9 9 9 9 9 9 9 9 8 8 8 8 8 7 7 7 6 6 6 6 5 5 5 5 4 4 4
7 7 7 7 7 7 7 8 8 8 8 8 8 8 9 9 9 9 9 9 8 8 8 8 8 8 8 7 7 7 7 6 6 6 5 5 5 5 4 4 4 4 3
6 6 6 6 6 7 7 7 7 7 7 7 8 8 8 8 8 8 8 8 8 8 8 7 7 7 7 7 6 6 6 6 5 5 5 5 5 4 4 4 3 3 3
Wind_Speed
7 6 5 5 5 4 4 4 4 3 3 2 2 2 2 1 1 0 1 0 1 1 1 1 2 1 1 1 2 2 2 2 2 1 1 1 1 1 1 1 0 1 1
7 6 6 5 4 5 5 5 4 3 3 3 2 2 2 2 1 1 1 1 1 1 2 1 2 1 1 2 2 2 2 3 3 2 1 1 1 1 0 0 1 0 0
6 6 6 6 6 6 6 5 4 3 3 2 2 2 2 2 2 2 2 2 2 2 2 2 2 2 2 2 2 2 2 2 2 2 1 1 1 1 1 1 1 1 1
6 6 7 7 7 7 6 5 4 4 3 3 3 3 3 3 2 2 2 2 2 2 2 3 3 3 3 3 3 3 2 2 2 2 1 1 1 0 1 0 1 1 1
6 7 8 7 6 6 5 5 4 4 4 4 3 3 2 3 3 3 3 3 2 2 2 2 3 4 5 4 3 4 4 3 2 2 1 1 1 0 1 1 0 1 1
7 8 7 6 6 6 6 5 5 5 4 3 4 3 3 3 4 5 4 3 3 2 2 2 3 3 4 5 6 6 6 5 4 3 2 3 2 2 1 1 1 1 1
6 6 6 6 6 7 6 5 6 6 5 4 5 4 4 6 6 5 6 4 3 3 2 2 2 2 2 1 2 3 4 6 6 5 4 4 3 4 3 2 2 2 2
5 6 6 6 6 6 5 6 6 5 5 5 5 5 5 6 6 5 6 3 2 2 3 3 2 2 2 2 2 1 1 2 4 4 5 5 4 4 4 3 3 1 0
5 6 6 6 7 6 7 7 6 5 6 6 5 6 6 6 6 6 5 3 2 2 3 2 3 3 4 3 3 2 1 1 2 3 4 3 3 3 4 3 3 2 0
6 7 6 6 7 8 8 8 5 5 6 6 6 6 6 6 7 7 7 3 3 3 2 2 4 4 4 4 4 3 3 2 1 2 2 2 2 2 2 3 3 3 1
5 4 5 5 7 8 7 5 5 5 5 6 6 6 6 7 7 8 8 5 5 4 3 3 3 4 4 5 5 4 5 3 2 3 2 2 2 2 2 1 1 2 2
3 4 5 5 5 5 6 5 5 5 5 6 5 5 5 6 7 8 9 9 7 5 4 4 3 4 4 4 4 3 4 4 3 3 3 2 1 1 1 1 2 2 2
3 4 5 5 5 4 5 6 4 5 5 6 6 6 6 5 6 9 9 10 10 7 5 6 5 5 4 2 3 4 4 3 3 3 2 1 1 1 1 2 3 4 5
5 5 5 4 5 5 5 5 6 6 7 7 7 7 6 5 5 5 5 6 7 6 4 4 6 5 4 3 3 3 2 3 4 3 2 1 1 2 2 1 2 2 2
6 6 5 5 5 5 5 6 7 8 9 9 9 8 8 8 10 11 8 7 6 6 5 3 2 3 3 2 2 2 2 3 3 2 3 2 2 2 1 1 2 2 2
6 6 5 5 5 5 5 5 7 9 11 13 12 10 9 11 10 12 12 12 11 12 7 4 5 5 5 5 4 3 2 3 3 3 3 3 3 3 2 2 2 3 3
7 7 6 5 5 5 5 6 6 6 7 10 12 13 12 11 12 12 13 11 11 13 6 6 6 7 6 6 5 5 4 3 3 4 4 4 3 3 3 3 3 3 2
7 8 7 6 6 6 7 7 7 6 6 6 7 11 12 12 12 12 12 9 6 7 5 6 7 7 6 6 6 5 5 4 4 4 4 4 4 4 3 3 3 3 2
7 6 6 6 6 6 6 6 6 7 7 6 4 5 9 10 10 11 12 7 8 8 7 6 6 7 6 7 6 6 6 6 5 5 4 5 4 4 4 3 3 4 3
7 11 9 7 6 6 6 7 7 7 7 7 7 7 5 5 5 7 8 7 7 7 8 8 7 7 7 7 7 7 6 6 6 5 5 5 4 4 5 5 4 3 2
7 8 11 8 6 7 7 8 8 8 8 8 8 8 10 8 9 9 9 9 8 8 8 8 7 7 7 7 7 8 8 7 6 6 6 5 5 4 4 4 4 3 3
6 7 7 7 7 7 8 7 8 8 9 9 7 7 13 8 8 8 9 9 8 8 8 8 7 7 8 9 9 9 8 7 7 7 6 6 5 5 5 4 4 3 3
7 8 8 8 8 9 9 7 8 8 8 8 8 7 8 9 8 8 9 8 7 7 7 7 8 7 6 7 8 9 9 9 8 9 8 7 6 6 5 5 5 4 3
7 9 9 8 8 8 8 8 8 8 8 8 8 8 9 9 9 9 8 7 7 7 7 7 8 10 11 9 8 8 9 10 10 10 10 9 8 6 5 5 5 4 4
7 8 8 8 8 8 8 8 8 8 8 8 8 8 8 8 8 8 7 7 8 8 9 9 8 9 13 13 11 10 13 15 14 11 10 8 8 7 7 6 5 4 3
8 9 9 8 8 8 8 8 8 8 8 7 7 7 8 8 8 8 7 7 8 8 9 8 10 11 13 13 14 15 16 17 16 15 11 8 8 7 7 5 6 5 4
Wind_Direction
206 206 211 217 216 216 224 239 246 255 263 260 262 265 277 288 289 185 237 208 182 240 241 209 232 209 191 190 174 165 169 162 187 271 280 303 337 348 21 38 74 154 180
208 205 214 218 215 221 234 242 236 242 252 246 244 246 259 269 266 220 230 216 208 239 246 222 244 204 188 185 177 181 187 185 178 215 282 308 317 293 308 62 0 65 160
202 206 214 217 219 227 234 238 230 230 243 244 227 233 248 253 251 243 222 219 221 235 233 224 238 210 219 206 195 195 199 186 176 181 228 290 309 346 36 22 30 4 331
202 207 216 220 221 227 229 229 226 224 229 233 227 231 242 246 240 239 224 223 229 238 237 234 234 220 225 216 206 203 189 173 166 168 193 240 263 309 108 84 357 359 333
204 215 224 224 221 224 227 227 225 224 226 225 225 237 250 247 239 220 211 215 221 241 254 249 243 236 228 214 202 195 181 177 174 174 188 196 214 179 204 198 247 322 325
208 222 225 217 215 220 224 222 222 228 228 218 221 228 244 253 255 220 200 200 211 220 248 267 263 256 253 237 221 202 187 182 185 182 190 194 209 205 198 184 162 109 304
216 226 221 216 220 223 221 215 221 227 223 224 230 226 239 256 258 231 205 187 204 222 229 249 266 267 265 238 231 212 208 207 194 184 190 203 199 197 179 179 185 184 216
224 232 226 218 225 225 218 222 227 222 218 225 232 230 235 252 252 230 205 185 196 224 230 231 237 260 252 201 184 178 214 234 220 203 199 205 207 197 188 181 173 153 315
237 240 235 223 225 224 224 228 226 219 221 220 223 222 225 247 249 225 196 178 199 235 247 242 230 241 250 195 163 176 201 283 260 190 181 186 192 184 164 141 147 149 212
251 247 238 224 222 226 230 228 222 218 224 220 224 222 221 234 241 224 198 184 201 229 251 258 246 238 237 199 178 180 200 234 181 122 111 89 84 99 130 158 167 165 173
264 260 244 232 228 227 228 227 221 218 221 220 224 227 224 228 234 224 202 191 202 211 225 244 250 233 218 204 187 193 207 188 151 133 114 93 75 67 64 85 135 160 169
272 265 257 245 240 235 223 224 216 210 216 221 224 235 235 231 225 225 213 205 198 197 215 224 226 209 196 189 183 182 165 141 127 120 114 107 96 82 62 73 88 84 97
277 267 264 259 246 233 220 221 218 213 219 223 221 231 240 232 228 224 217 211 203 200 210 205 193 182 173 172 164 154 142 132 133 138 150 159 152 138 92 83 77 78 69
269 270 265 256 255 244 231 221 218 218 223 224 222 228 234 232 225 218 215 211 201 199 198 181 165 154 141 132 124 131 133 146 150 157 157 148 112 100 93 86 94 86 79
272 270 267 255 249 244 237 232 229 227 223 222 224 219 217 228 228 212 202 203 197 192 168 148 147 152 157 149 132 125 130 135 142 144 145 142 131 115 83 63 85 83 93
276 271 264 260 252 243 243 259 255 247 245 238 230 220 224 224 217 206 206 203 194 178 162 174 184 185 186 184 178 171 166 166 164 156 153 154 150 143 123 92 88 104 109
267 268 264 258 253 245 239 241 260 270 256 247 238 228 224 219 210 202 199 196 187 172 177 189 191 192 191 186 183 181 182 177 162 154 153 154 148 141 133 126 117 111 110
276 274 268 253 250 246 241 240 240 244 252 257 245 233 225 219 210 201 187 169 181 185 194 194 196 193 188 186 183 179 171 160 155 154 152 152 151 145 140 139 138 135 131
283 278 268 259 252 249 247 244 242 241 242 245 245 236 223 215 206 198 178 186 191 197 199 197 193 189 187 183 179 173 169 167 161 157 157 156 154 145 144 147 144 137 128
280 284 285 270 260 255 248 243 241 241 240 235 232 226 199 189 201 199 198 199 197 197 197 196 192 186 182 177 173 168 165 164 162 158 159 156 152 147 150 151 152 150 151
280 282 285 280 263 255 249 244 241 240 239 237 236 223 201 206 208 204 202 203 202 200 196 190 185 182 178 172 170 170 169 169 168 164 161 158 153 148 147 149 152 151 146
278 274 269 268 267 260 254 249 244 241 240 239 242 224 206 210 211 207 205 205 203 199 189 181 181 181 180 177 173 171 171 171 170 165 162 159 155 152 149 149 149 148 150
279 277 273 270 265 262 258 254 248 244 241 237 234 221 210 213 214 211 208 203 194 188 180 175 174 175 172 173 173 172 173 177 175 168 162 160 158 158 157 158 160 157 162
278 280 276 272 269 264 258 255 250 246 243 238 233 223 214 212 212 211 205 197 189 184 179 177 178 177 171 169 169 171 170 168 164 165 162 160 160 159 159 159 163 165 169
279 281 277 270 265 263 260 257 252 247 244 240 235 225 216 211 209 206 199 192 186 183 181 178 176 175 173 170 169 170 168 164 163 163 160 157 158 160 160 161 164 165 169
281 282 280 272 264 261 260 257 253 248 243 242 237 225 214 208 204 198 192 188 186 183 180 178 175 173 172 172 171 168 166 165 164 162 160 156 156 159 159 161 163 166 168
Height
1500 1500 1501 1501 1501 1501 1501 1500 1500 1500 1499 1498 1497 1496 1495 1494 1493 1492 1491 1490 1490 1490 1489 1489 1490 1490 1491 1492 1492 1493 1494 1495 1495 1496 1497 1498 1498 1499 1500 1501 1503 1504 1505
1498 1498 1499 1499 1499 1499 1499 1499 1498 1498 1498 1497 1496 1495 1494 1493 1492 1491 1491 1490 1489 1489 1489 1489 1489 1489 1489 1490 1491 1492 1492 1493 1494 1495 1496 1496 1497 1498 1499 1500 1501 1502 1503
1496 1496 1496 1497 1497 1497 1497 1497 1497 1496 1496 1495 1495 1494 1493 1492 1491 1491 1490 1489 1489 1488 1488 1488 1488 1488 1488 1489 1490 1490 1491 1492 1493 1493 1494 1495 1496 1496 1497 1498 1499 1500 1501
1493 1493 1494 1494 1494 1494 1494 1494 1494 1494 1494 1493 1493 1492 1492 1491 1490 1490 1489 1489 1488 1488 1487 1487 1487 1487 1487 1488 1488 1489 1489 1490 1491 1492 1492 1493 1494 1495 1495 1496 1497 1498 1499
1490 1490 1491 1491 1492 1492 1492 1492 1492 1492 1492 1491 1491 1491 1490 1490 1489 1489 1488 1488 1487 1487 1486 1486 1486 1486 1486 1486 1487 1487 1488 1489 1489 1490 1491 1492 1492 1493 1494 1494 1495 1496 1497
1486 1487 1488 1488 1488 1489 1489 1489 1489 1489 1489 1489 1489 1488 1488 1488 1488 1487 1487 1486 1486 1485 1485 1485 1485 1485 1485 1485 1485 1486 1486 1487 1487 1488 1489 1489 1490 1491 1492 1493 1493 1494 1495
1482 1483 1484 1484 1485 1485 1486 1486 1486 1486 1486 1486 1486 1486 1485 1485 1485 1485 1485 1485 1484 1484 1484 1484 1483 1483 1483 1483 1484 1484 1485 1485 1486 1486 1487 1487 1488 1489 1490 1491 1492 1492 1493
1479 1480 1480 1480 1481 1481 1482 1482 1482 1482 1482 1482 1482 1483 1483 1483 1483 1483 1483 1483 1482 1482 1482 1482 1482 1482 1482 1482 1482 1482 1483 1483 1483 1484 1485 1485 1486 1487 1488 1489 1490 1490 1491
1475 1476 1476 1476 1477 1477 1477 1478 1478 1478 1478 1478 1479 1479 1479 1479 1480 1480 1480 1480 1480 1480 1480 1480 1480 1480 1480 1480 1480 1480 1481 1481 1481 1482 1482 1483 1484 1485 1486 1487 1487 1488 1488
1472 1472 1472 1472 1472 1472 1473 1473 1474 1474 1474 1474 1474 1475 1475 1475 1476 1476 1477 1477 1477 1477 1477 1477 1477 1477 1478 1478 1478 1478 1478 1479 1479 1480 1480 1481 1482 1483 1484 1485 1485 1486 1486
1469 1469 1468 1468 1468 1468 1468 1468 1469 1469 1469 1469 1469 1470 1470 1471 1472 1472 1473 1473 1473 1474 1474 1474 1475 1475 1475 1476 1476 1476 1476 1477 1477 1478 1478 1479 1480 1481 1481 1482 1483 1484 1484
1466 1465 1464 1464 1463 1463 1463 1463 1463 1464 1464 1464 1464 1464 1465 1466 1467 1468 1468 1469 1469 1470 1470 1471 1472 1472 1473 1473 1473 1474 1474 1474 1475 1475 1476 1477 1477 1478 1479 1480 1480 1481 1482
1461 1460 1459 1459 1458 1458 1458 1457 1458 1458 1458 1458 1458 1459 1459 1460 1461 1462 1463 1464 1465 1466 1466 1467 1468 1469 1469 1470 1471 1471 1472 1472 1472 1473 1473 1474 1475 1476 1477 1477 1478 1478 1479
1456 1455 1454 1453 1453 1452 1452 1452 1451 1451 1452 1452 1452 1453 1453 1454 1455 1457 1458 1459 1459 1460 1462 1463 1464 1465 1466 1466 1467 1468 1468 1469 1470 1470 1471 1472 1473 1473 1474 1474 1475 1475 1476
1451 1450 1449 1448 1447 1446 1446 1446 1445 1445 1446 1446 1446 1447 1447 1448 1449 1451 1452 1453 1454 1455 1456 1458 1459 1460 1461 1462 1463 1464 1465 1466 1466 1467 1468 1469 1470 1470 1471 1472 1472 1472 1473
1446 1444 1443 1442 1441 1440 1439 1438 1438 1439 1439 1439 1440 1441 1441 1442 1444 1444 1446 1447 1448 1450 1451 1451 1453 1454 1456 1457 1458 1460 1461 1462 1462 1463 1465 1465 1466 1467 1468 1469 1469 1470 1470
1440 1439 1437 1436 1434 1433 1432 1431 1430 1430 1431 1431 1432 1433 1434 1435 1436 1437 1439 1441 1442 1443 1444 1445 1447 1448 1450 1452 1453 1454 1456 1457 1458 1459 1461 1462 1463 1464 1464 1465 1466 1466 1467
1435 1433 1431 1429 1428 1427 1426 1425 1424 1423 1422 1422 1424 1425 1426 1427 1429 1430 1432 1434 1434 1436 1437 1439 1440 1442 1444 1446 1448 1449 1451 1452 1454 1455 1456 1458 1459 1460 1461 1462 1462 1463 1463
1429 1426 1424 1422 1421 1420 1419 1418 1417 1416 1415 1415 1416 1417 1418 1419 1421 1422 1424 1425 1426 1428 1430 1432 1434 1436 1438 1440 1442 1444 1446 1448 1449 1450 1452 1453 1455 1456 1457 1458 1459 1460 1460
1422 1420 1418 1416 1414 1412 1411 1410 1409 1408 1408 1407 1407 1408 1410 1411 1412 1413 1415 1417 1418 1421 1423 1425 1427 1430 1432 1434 1436 1439 1441 1442 1444 1446 1448 1449 1451 1452 1453 1454 1455 1456 1456
1416 1413 1411 1409 1406 1405 1403 1402 1401 1400 1400 1399 1399 1400 1402 1403 1404 1405 1406 1408 1410 1413 1415 1418 1420 1423 1425 1428 1430 1433 1435 1437 1439 1441 1443 1445 1447 1448 1449 1451 1451 1452 1453
1409 1406 1403 1401 1398 1397 1395 1394 1393 1392 1391 1391 1391 1392 1393 1394 1396 1397 1399 1401 1403 1406 1409 1411 1413 1416 1419 1421 1424 1427 1429 1431 1434 1436 1438 1440 1442 1444 1445 1446 1447 1448 1449
1401 1398 1395 1393 1391 1389 1387 1386 1385 1384 1383 1383 1383 1384 1384 1385 1387 1389 1391 1393 1396 1399 1401 1404 1406 1409 1412 1415 1418 1421 1424 1426 1429 1431 1433 1435 1437 1439 1441 1442 1443 1444 1445
1394 1391 1388 1385 1383 1381 1379 1377 1376 1375 1374 1374 1374 1375 1376 1377 1379 1381 1384 1386 1389 1392 1394 1397 1400 1403 1406 1409 1413 1415 1418 1421 1424 1426 1429 1431 1433 1435 1436 1438 1439 1440 1441
1387 1383 1380 1377 1375 1372 1370 1369 1367 1367 1366 1366 1366 1367 1368 1369 1371 1373 1376 1379 1381 1384 1388 1390 1394 1397 1400 1404 1407 1410 1413 1416 1419 1421 1424 1426 1428 1430 1432 1433 1435 1436 1437
1379 1376 1373 1370 1367 1365 1363 1361 1359 1359 1358 1358 1358 1359 1360 1361 1363 1365 1368 1371 1374 1377 1381 1384 1387 1391 1394 1398 1401 1405 1408 1411 1414 1417 1419 1421 1424 1425 1427 1429 1430 1431 1432